Ontario, OR

9:22 AM MDT on April 27, 2017 (GMT -0600)
Ontario Municipal

Weather History for KONO - October, 2013

Change the Weather History Date:

Tuesday, October 8, 2013

  Actual Average Record
Temperature  
Mean Temperature 49 °F 54 °F  
Max Temperature 60 °F 71 °F 86 °F (1996)
Min Temperature 38 °F 37 °F 21 °F (1974)
Degree Days  
Heating Degree Days 16 11  
Month to date heating degree days 118 78  
Since 1 July heating degree days 206 212  
Cooling Degree Days 0 0  
Month to date cooling degree days 0 0  
Year to date cooling degree days 1299 851  
Moisture  
Dew Point 35 °F    
Average Humidity 59    
Maximum Humidity 82    
Minimum Humidity 36    
Precipitation  
Precipitation T in 0.02 in 0.19 in (1959)
Month to date precipitation T 0.12  
Year to date precipitation 3.77 6.77  
Sea Level Pressure  
Sea Level Pressure 29.99 in    
Wind  
Wind Speed 7 mph (West)    
Max Wind Speed 18 mph    
Max Gust Speed 25 mph    
Visibility 10 miles    
Events Rain    
T = Trace of Precipitation, MM = Missing Value Source: NWS Daily Summary

Daily Weather History Graph

Daily Weather History Graph

Search for Another Location

Airport or City:

Trip Planner

Search our weather history database for the weather conditions in past years. The results will help you decide how hot, cold, wet, or windy it might be!

Date:

Astronomy

Oct. 08, 2013 Rise Set
Actual Time 7:54 AM MDT 7:15 PM MDT
Civil Twilight 7:25 AM MDT 7:44 PM MDT
Nautical Twilight 6:52 AM MDT 8:17 PM MDT
Astronomical Twilight 6:18 AM MDT 8:51 PM MDT
Moon 12:01 PM MDT (10/8) 9:48 PM MDT (10/8)
Length of Visible Light 12h 18m
Length of Day
11h 21m
Waxing Crescent, 16% of the Moon is Illuminated
Oct 8
Waxing Crescent
Oct 11
First Quarter
Oct 18
Full
Oct 26
Last Quarter
Nov 3
New

Hourly Weather History & Observations

Time (MDT) Temp. Windchill Dew Point Humidity Pressure Visibility Wind Dir Wind Speed Gust Speed Precip Events Conditions
12:53 AM 51.1 °F - 35.1 °F 54% 29.98 in 10.0 mi WNW 13.8 mph - N/A   Clear
1:53 AM 50.0 °F - 35.1 °F 57% 29.98 in 10.0 mi WNW 13.8 mph - N/A   Clear
2:53 AM 48.9 °F - 35.1 °F 59% 29.99 in 10.0 mi West 12.7 mph - N/A   Clear
3:53 AM 45.0 °F 41.2 °F 34.0 °F 65% 29.99 in 10.0 mi WSW 6.9 mph - N/A   Clear
4:53 AM 42.1 °F 36.6 °F 34.0 °F 73% 30.01 in 10.0 mi WSW 9.2 mph - N/A   Clear
5:53 AM 39.9 °F 35.1 °F 32.0 °F 73% 30.03 in 10.0 mi SW 6.9 mph - N/A   Clear
6:53 AM 39.0 °F 32.8 °F 32.0 °F 76% 30.04 in 10.0 mi SW 9.2 mph - N/A   Clear
7:53 AM 37.9 °F 33.5 °F 32.0 °F 79% 30.04 in 10.0 mi West 5.8 mph - N/A   Partly Cloudy
8:53 AM 44.1 °F 39.5 °F 34.0 °F 68% 30.04 in 10.0 mi WSW 8.1 mph - N/A   Partly Cloudy
9:53 AM 48.0 °F - 35.1 °F 61% 30.05 in 10.0 mi SW 6.9 mph - N/A   Clear
10:53 AM 53.1 °F - 35.1 °F 50% 30.04 in 10.0 mi WSW 10.4 mph - N/A   Clear
11:53 AM 55.0 °F - 35.1 °F 47% 30.02 in 10.0 mi WSW 4.6 mph - N/A   Clear
12:53 PM 55.9 °F - 33.1 °F 42% 30.00 in 10.0 mi West 6.9 mph - N/A   Clear
1:53 PM 57.0 °F - 34.0 °F 42% 29.97 in 10.0 mi West 3.5 mph - N/A   Mostly Cloudy
2:53 PM 59.0 °F - 33.1 °F 38% 29.95 in 10.0 mi Calm Calm - N/A   Overcast
3:53 PM 57.9 °F - 32.0 °F 37% 29.94 in 10.0 mi West 4.6 mph - N/A   Overcast
4:53 PM 57.9 °F - 30.9 °F 36% 29.94 in 10.0 mi Calm Calm - N/A   Overcast
5:53 PM 55.0 °F - 34.0 °F 45% 29.96 in 10.0 mi NNW 16.1 mph - N/A   Overcast
6:53 PM 52.0 °F - 35.1 °F 53% 29.96 in 10.0 mi NNW 6.9 mph - N/A   Overcast
7:53 PM 51.1 °F - 37.9 °F 61% 29.96 in 10.0 mi North 8.1 mph - 0.00 in   Overcast
8:53 PM 50.0 °F - 37.9 °F 63% 29.96 in 10.0 mi NW 5.8 mph - N/A   Overcast
9:53 PM 48.9 °F - 37.9 °F 66% 29.95 in 10.0 mi West 4.6 mph - N/A   Overcast
10:53 PM 46.9 °F - 41.0 °F 80% 29.94 in 10.0 mi WSW 6.9 mph - 0.00 in Rain Light Rain
11:53 PM 44.1 °F 40.8 °F 37.9 °F 79% 29.93 in 10.0 mi WSW 5.8 mph - 0.00 in   Partly Cloudy